Powrót do katalogu

CZ-6A DEB

AktywnyPO
NORAD 64633·DEBRIS·🇨🇳 China

Wystrzelony Aug 6, 2024 z Taiyuan Satellite Launch Center

Loading…

Następne Przeloty (najbliższe 24 godziny)

TLE

ŚwieżeSource: Space-Track

Epoka: Sep 14, 2026, 07:01 UTC

1 64633U 24140ADX 26257.29248512  .00002560  00000-0  13037-2 0  9997
2 64633  88.9917 265.5608 0102117 304.1094  55.0435 14.12886872102317

Śledź CZ-6A DEB w czasie rzeczywistym z AllMySat

Download on the App Store